This is the latest recevied weather packets stored in our database for station/object K5SVV. If no packets are shown the sender has not sent any weather packets the latest 10 day(s).
| Time | Temp. | Humidity | Pressure | Rain* | Wind** | Luminosity | Snow |
|---|---|---|---|---|---|---|---|
| 1788458518 | 28.33° C | 79% | 1013.3 hPa | 0 mm | - | 381 W/m² | - |
| 1788458217 | 28.33° C | 80% | 1013.2 hPa | 0 mm | - | 373 W/m² | - |
| 1788457911 | 28.33° C | 79% | 1013.5 hPa | 0 mm | - | 317 W/m² | - |
| 1788457605 | 28.33° C | 80% | 1013.6 hPa | 0 mm | - | 312 W/m² | - |
| 1788457300 | 27.78° C | 80% | 1013.7 hPa | 0 mm | - | 337 W/m² | - |
| 1788456995 | 27.78° C | 81% | 1013.5 hPa | 0 mm | - | 343 W/m² | - |
| 1788456692 | 27.78° C | 81% | 1013.7 hPa | 0 mm | - | 320 W/m² | - |
| 1788456406 | 27.78° C | 81% | 1013.6 hPa | 0 mm | - | 305 W/m² | - |
| 1788456087 | 27.78° C | 82% | 1013.6 hPa | 0 mm | - | 272 W/m² | - |
| 1788455787 | 27.78° C | 82% | 1013.8 hPa | 0 mm | - | 295 W/m² | - |
| 1788455483 | 27.78° C | 82% | 1013.6 hPa | 0 mm | - | 314 W/m² | - |
| 1788455181 | 27.78° C | 83% | 1013.9 hPa | 0 mm | - | 325 W/m² | - |
| 1788454877 | 27.78° C | 83% | 1013.8 hPa | 0 mm | - | 318 W/m² | - |
| 1788454575 | 27.78° C | 83% | 1013.7 hPa | 0 mm | - | 205 W/m² | - |
| 1788454270 | 27.78° C | 84% | 1013.9 hPa | 0 mm | - | 229 W/m² | - |
| 1788453965 | 27.78° C | 83% | 1013.8 hPa | 0 mm | - | 186 W/m² | - |
| 1788453661 | 28.33° C | 82% | 1013.8 hPa | 0 mm | - | 106 W/m² | - |
| 1788453361 | 28.33° C | 82% | 1013.9 hPa | 0 mm | - | 171 W/m² | - |
| 1788453057 | 28.33° C | 82% | 1013.6 hPa | 0 mm | - | 149 W/m² | - |
| 1788452753 | 28.33° C | 82% | 1013.7 hPa | 0 mm | - | 134 W/m² | - |
| 1788452449 | 28.33° C | 82% | 1013.6 hPa | 0 mm | - | 141 W/m² | - |
| 1788452144 | 27.78° C | 82% | 1013.6 hPa | 0 mm | - | 150 W/m² | - |
| 1788451840 | 27.78° C | 82% | 1013.4 hPa | 0 mm | - | 132 W/m² | - |
| 1788451538 | 27.78° C | 82% | 1013.5 hPa | 0 mm | - | 110 W/m² | - |
| 1788451233 | 27.78° C | 83% | 1013.5 hPa | 0 mm | - | 88 W/m² | - |
* Rain latest hour (hover to see other rain measurements)
** Current wind speed in m/s (hover to see current wind gust speed)